CAPE
2 1 1 1 1 1 1 1 1 1 2 3 1 0 1 0 0 0 0 0 0 2134 1620 1047 649 718 1202 1384 776 1472 771 147 117 79 135 100 176 223 313 225 98 78 29 253 48
3 2 1 0 1 1 1 1 1 1 2 2 1 0 1 0 0 0 0 12 1335 2690 1074 993 1016 1079 1687 1411 849 1284 245 148 86 61 104 86 174 343 333 202 238 296 126 382 16
2 1 2 1 1 1 1 1 1 1 2 2 1 0 0 0 0 0 214 1188 1954 1790 929 1071 1364 1561 1922 1460 1132 934 364 260 178 109 111 109 177 307 169 263 221 443 461 616 74
2 2 2 1 1 1 1 1 2 2 1 1 0 0 0 0 0 0 1080 2259 2709 801 953 1759 1685 2007 1136 1012 1085 618 712 216 252 302 167 181 250 319 215 72 185 307 432 569 602
2 4 4 1 2 2 2 2 3 1 1 1 0 0 0 0 0 406 2678 2589 1551 865 1348 1582 1720 1044 582 543 768 201 137 270 249 335 216 264 314 324 419 301 220 312 278 400 513
5 6 6 6 5 2 5 6 3 2 1 0 0 0 0 0 0 474 697 1338 816 1090 1139 1104 587 629 622 253 270 78 78 138 213 226 266 281 332 316 522 441 444 507 361 254 202
4 4 5 6 4 3 4 3 1 3 1 0 0 0 0 0 103 425 847 708 795 1064 877 647 586 505 185 197 51 156 146 192 283 378 430 375 453 432 572 716 671 626 597 274 250
3 3 6 6 5 3 2 0 0 0 0 0 0 0 0 0 147 440 574 502 1008 864 311 529 594 376 154 161 123 177 297 449 340 397 347 480 560 439 664 773 875 823 493 415 257
1 2 6 8 5 5 2 0 0 0 0 0 0 0 0 24 0 109 217 321 842 1022 538 243 0 0 77 418 316 252 409 361 398 386 401 452 478 307 679 713 839 972 537 366 359
0 3 7 7 5 4 1 0 0 0 0 0 0 0 0 0 0 65 305 188 724 834 619 464 4 44 267 474 494 418 395 325 393 456 390 340 344 333 525 610 726 880 811 425 341
2 6 8 0 1 3 0 0 0 0 0 0 0 0 0 0 0 10 67 337 154 346 102 122 0 72 264 315 386 409 388 374 394 391 464 443 413 349 594 550 557 779 856 552 275
5 8 1 0 2 0 0 0 0 0 0 0 0 0 0 0 0 0 0 0 0 8 0 0 25 63 111 188 180 344 425 244 299 614 584 291 359 354 507 782 603 658 660 650 580
7 4 4 1 0 0 0 0 0 0 0 0 0 0 0 0 0 0 0 0 0 0 0 58 21 8 70 150 194 284 314 254 53 366 486 508 559 589 589 756 670 668 651 527 541
9 4 2 3 0 0 0 0 0 0 0 0 0 0 0 0 0 0 0 0 0 0 0 0 0 0 22 99 160 271 106 40 31 400 348 409 302 391 850 942 866 853 758 564 474
3 4 3 1 0 0 0 0 0 0 0 0 0 0 0 0 0 0 0 0 0 0 0 0 0 0 0 0 27 41 97 107 109 86 135 218 427 741 717 977 927 923 858 665 544
4 6 5 0 0 0 0 0 0 0 0 0 0 0 0 0 0 0 0 0 0 0 0 0 0 0 0 0 0 28 69 135 206 182 18 120 279 389 383 608 669 893 868 817 655
2 2 2 0 0 0 0 0 0 0 0 0 0 0 0 0 0 0 0 0 0 0 0 0 0 0 0 0 0 13 21 296 337 413 125 194 297 430 341 287 331 394 864 867 797
0 0 0 0 0 0 0 0 0 0 0 0 0 0 0 0 0 0 0 0 0 0 0 0 0 0 0 0 0 0 0 181 209 178 88 225 55 269 179 103 145 194 207 814 832
0 0 0 0 0 0 0 0 0 0 0 0 0 0 0 0 0 0 0 0 0 0 0 0 0 0 0 0 0 0 0 0 89 33 0 0 14 19 6 0 10 42 56 387 790
0 0 0 0 0 0 0 0 0 0 0 0 0 0 0 0 0 0 0 0 0 0 0 0 0 0 0 0 0 0 0 0 0 88 43 6 0 4 0 0 0 0 0 14 483
0 0 0 0 0 0 0 0 0 0 0 0 0 0 0 0 0 0 0 0 0 0 0 0 0 0 0 0 0 0 0 0 7 98 101 18 1 0 0 0 0 0 0 0 350
0 0 0 0 0 0 0 0 0 0 0 0 0 0 0 0 0 0 0 0 0 0 0 0 0 0 0 0 0 0 0 0 0 2 0 0 0 0 0 0 0 0 0 0 385
0 0 0 0 0 0 0 0 0 0 0 0 0 0 0 0 0 0 0 0 0 0 0 0 0 0 0 0 0 0 0 0 0 0 4 9 0 0 0 0 0 0 0 3 678
0 0 0 0 0 0 0 0 0 0 0 0 0 0 0 0 0 0 0 0 0 0 0 0 0 0 2 2 0 0 0 0 0 0 0 0 0 0 0 0 0 0 0 4 944
0 0 0 0 0 0 0 0 0 0 0 0 0 0 0 0 0 0 0 0 0 0 0 0 0 0 0 0 0 0 0 0 0 0 0 4 0 0 0 1 0 0 0 25 846
0 0 0 0 0 0 0 0 0 0 0 0 0 0 0 0 0 0 0 0 0 0 0 0 0 0 7 0 0 0 0 0 0 0 0 0 0 0 0 11 30 37 0 184 689
0 0 0 0 0 0 0 0 0 0 0 0 0 0 0 0 0 0 0 0 0 0 0 0 0 0 0 0 0 0 0 0 0 0 0 0 0 3 30 69 156 75 21 51 449
CIN
0 0 0 0 0 0 0 0 0 0 0 0 0 0 0 0 0 0 0 0 0 -295 -262 -154 -173 -169 -138 -69 -107 -49 -1 -4 -28 -80 -42 -66 -28 -17 -12 -18 -31 -22 -13 -24 -126
0 0 0 0 0 0 0 0 0 0 0 0 0 0 0 0 0 0 0 -80 -482 -275 -135 -113 -92 -128 -52 -35 -45 -3 -1 -2 -33 -61 -62 -63 -13 -16 -12 -19 -23 -20 -19 -43 -135
0 0 0 0 0 0 0 0 0 0 0 0 0 0 0 0 0 0 -682 -547 -407 -367 -122 -88 -83 -72 -1 -24 -11 -7 0 0 -4 -22 -25 -32 -12 -12 -13 -4 -10 -16 -40 -58 -116
0 0 0 0 0 0 0 0 0 0 0 0 0 0 0 0 0 0 -593 -411 -312 -240 -117 -70 -63 -14 -5 0 -15 0 -3 0 0 -5 -7 -12 -8 -6 0 -13 -20 -24 -43 -65 -64
0 0 0 0 0 0 0 0 0 0 0 0 0 0 0 0 0 -384 -339 -324 -306 -178 -64 -42 -29 -12 -1 -4 -8 -8 -17 0 -2 -5 -1 -7 -4 0 -6 -17 -18 -42 -61 -48 -40
0 0 0 0 0 0 0 0 0 0 0 0 0 0 0 0 0 -345 -347 -346 -183 -106 -55 -46 -30 -38 -12 -5 -1 -17 -16 -10 0 -1 -3 -5 -6 -15 -8 -21 -26 -39 -47 -40 -41
0 0 0 0 0 0 0 0 0 0 0 0 0 0 0 0 -456 -315 -260 -238 -144 -77 -34 -61 -71 -49 -38 -3 -22 -7 -11 -7 -2 -5 -13 -12 -15 -11 -15 -29 -23 -27 -31 -40 -53
0 0 0 0 0 0 0 0 0 0 0 0 0 0 0 0 -548 -331 -239 -201 -138 -89 -110 -89 -94 -85 -70 -35 -19 -2 -1 0 -15 -15 -29 -19 0 -7 -22 -26 -20 -26 -38 -40 -53
0 0 0 0 0 0 0 0 0 0 0 0 0 0 0 -560 0 -400 -336 -228 -161 -131 -140 -202 0 0 -88 -8 -1 -5 0 0 -4 -16 -8 -16 0 -5 -20 -16 -13 -14 -22 -43 -42
0 0 0 0 0 0 0 0 0 0 0 0 0 0 0 0 0 -357 -322 -341 -128 -120 -101 -87 -118 -87 -8 0 0 0 0 0 0 -1 -15 -9 -10 -14 -29 -17 -12 -12 -17 -43 -51
0 0 0 0 0 0 0 0 0 0 0 0 0 0 0 0 0 -644 -531 -213 -285 -142 -176 -169 0 -80 -8 -1 -1 0 0 0 -1 -7 -12 -8 -3 0 -38 -47 -19 -13 -17 -30 -51
0 0 0 0 0 0 0 0 0 0 0 0 0 0 0 0 0 0 0 0 0 -253 0 -19 -177 -91 -79 -46 -41 -2 0 -1 -8 -31 -37 -8 -15 -29 -23 -51 -31 -17 -11 -24 -34
0 0 0 0 0 0 0 0 0 0 0 0 0 0 0 0 0 0 0 0 0 0 0 -119 -132 -211 -123 -52 -29 -1 0 -10 -71 -23 -29 -36 -17 -21 -46 -69 -60 -47 -26 -31 -45
0 0 -1 0 0 0 0 0 0 0 0 0 0 0 0 0 0 0 0 0 0 0 0 0 0 0 -188 -78 -24 0 -63 -128 -132 -9 0 -39 0 -2 -30 -77 -87 -60 -57 -52 -54
0 0 0 -1 0 0 0 0 0 0 0 0 0 0 0 0 0 0 0 0 0 0 0 0 0 0 0 0 -83 -61 -102 -102 -106 -105 -36 -16 -12 0 -51 -35 -63 -75 -52 -67 -60
0 0 0 0 0 0 0 0 0 0 0 0 0 0 0 0 0 0 0 0 0 0 0 0 0 0 0 0 0 -141 -142 -99 -77 -60 -88 -11 -8 0 -2 -11 -8 -32 -56 -66 -75
0 0 0 0 0 0 0 0 0 0 0 0 0 0 0 0 0 0 0 0 0 0 0 0 0 0 0 0 0 -144 -124 -1 0 0 -5 -14 -18 0 -4 -10 -12 -10 -29 -54 -71
0 0 0 0 0 0 0 0 0 0 0 0 0 0 0 0 0 0 0 0 0 0 0 0 0 0 0 0 0 0 -1 -9 -2 0 -5 -27 -22 0 -29 -21 -16 -30 -23 -23 -67
0 0 0 0 0 0 0 0 0 0 0 0 0 0 0 0 0 0 0 0 0 0 0 0 0 0 0 0 0 0 0 0 -37 -57 0 0 -40 -16 -7 0 -41 -44 -33 -21 -31
0 0 0 0 0 0 0 0 0 0 0 0 0 0 0 0 0 0 0 0 0 0 0 0 0 0 0 0 0 0 0 0 -1 -62 -69 0 0 -8 0 0 0 0 0 -42 -33
0 0 0 0 0 0 0 0 0 0 0 0 0 0 0 0 0 0 0 0 0 0 0 0 0 0 0 0 0 0 0 0 -20 -40 -25 -26 0 0 0 0 0 0 0 0 -30
0 0 0 0 0 0 0 0 0 0 0 0 0 0 0 0 0 0 0 0 0 0 0 0 0 0 0 0 0 0 0 0 0 -114 0 0 0 0 0 0 0 0 0 0 -40
0 0 0 0 0 0 0 0 0 0 0 0 0 0 0 0 0 0 0 0 0 0 0 0 0 0 0 0 0 0 0 0 0 0 0 0 0 0 0 0 0 0 0 -41 -55
0 0 0 0 0 0 0 0 0 0 0 0 0 0 0 0 0 0 0 0 0 0 0 0 0 0 0 -1 0 0 0 0 0 0 0 0 0 0 0 0 0 0 0 -66 -78
0 0 0 0 0 0 0 0 0 0 0 0 0 0 0 0 0 0 0 0 0 0 0 0 0 0 0 0 0 0 0 0 0 0 0 0 0 0 0 0 0 0 0 -59 -66
0 0 0 0 0 0 0 0 0 0 0 0 0 0 0 0 0 0 0 0 0 0 0 0 0 0 -56 0 0 0 0 0 0 0 0 0 0 0 0 -16 -32 -31 -1 -54 -69
0 0 0 0 0 0 0 0 0 0 0 0 0 0 0 0 0 0 0 0 0 0 0 0 0 0 0 0 0 0 0 0 0 0 0 0 0 -1 -4 -20 -47 -46 -37 -45 -56
Wind_Speed
20 19 19 18 18 17 16 16 16 14 14 11 10 8 7 6 5 6 10 3 8 20 15 16 11 10 7 4 4 3 5 8 9 9 10 13 8 5 3 12 11 6 10 19 19
20 21 20 20 19 18 16 16 17 16 14 12 9 7 6 5 9 12 6 14 24 19 20 18 13 12 5 3 4 7 6 11 8 11 12 14 8 10 9 13 12 10 12 22 22
21 22 21 21 21 20 19 17 16 17 14 12 9 7 5 9 8 3 12 18 25 20 15 11 11 10 6 3 2 1 8 7 8 9 13 12 8 9 10 11 13 14 21 23 23
21 22 22 22 22 21 20 19 17 17 14 11 9 7 5 8 4 6 12 22 23 18 16 10 12 8 5 1 3 3 4 3 9 7 10 11 11 8 6 6 12 14 21 22 21
22 21 21 22 22 22 21 20 18 17 14 10 8 7 7 8 3 7 14 21 22 19 17 12 8 6 7 4 6 2 11 8 10 10 10 9 9 8 8 4 15 16 19 21 19
21 21 21 21 22 22 21 21 20 15 12 8 7 6 8 9 3 9 18 22 18 19 15 9 3 6 5 3 2 6 13 11 10 9 9 9 6 3 9 10 17 17 19 18 18
22 22 22 21 23 23 23 23 21 14 10 8 7 7 7 2 3 8 17 20 14 16 12 8 4 9 8 4 3 7 13 11 9 9 6 6 6 9 13 13 16 17 17 18 17
22 22 22 22 23 23 23 22 21 9 8 8 8 7 5 3 6 10 14 15 12 8 2 5 8 11 7 2 7 6 6 8 9 9 5 11 8 13 14 16 16 16 16 17 19
22 23 23 23 23 21 22 22 10 6 8 10 8 8 5 4 10 12 13 14 13 12 6 4 5 8 5 10 9 8 5 4 9 10 6 13 0 6 14 16 15 15 16 17 18
22 22 22 23 22 21 22 15 0 8 7 6 4 7 7 5 10 11 11 11 12 14 10 11 8 10 9 8 8 8 7 4 5 8 13 13 14 8 12 16 16 16 16 17 19
22 22 22 24 23 18 14 6 8 8 9 6 4 2 8 9 12 12 15 17 11 15 14 14 10 12 12 6 6 5 5 7 2 3 10 12 14 11 14 15 16 17 18 18 19
23 22 24 24 22 20 7 6 6 6 6 10 9 5 3 2 11 14 16 15 16 17 15 10 14 12 3 4 7 10 9 3 4 2 8 12 13 12 11 17 17 18 19 20 18
23 23 21 24 23 8 5 1 4 4 7 7 6 10 10 9 6 19 20 12 17 17 17 17 10 6 9 10 12 11 9 7 8 1 10 10 16 8 10 14 15 16 18 20 20
23 21 19 21 9 3 3 4 6 5 7 9 8 7 10 8 8 14 21 12 7 16 15 14 9 7 13 14 13 15 6 8 6 7 4 3 6 5 7 13 17 18 19 20 21
25 20 14 5 9 5 7 4 3 6 8 8 8 8 11 14 16 11 18 13 16 13 9 15 11 14 16 15 15 13 5 7 5 9 6 12 7 7 5 10 17 19 20 21 22
26 20 12 6 5 5 5 4 6 8 3 7 7 10 15 16 8 14 16 12 9 15 15 18 2 12 18 18 7 1 6 8 7 8 11 3 6 7 8 5 8 17 20 22 23
24 19 6 2 3 1 5 6 8 9 5 9 8 10 16 16 13 18 18 18 14 15 14 15 15 13 11 14 9 14 13 10 11 11 6 7 6 8 6 5 5 6 17 21 23
25 11 6 4 5 6 6 9 8 3 1 4 4 5 12 15 14 14 17 18 21 18 11 13 14 17 13 18 13 15 18 12 9 11 5 5 6 7 5 4 5 7 7 17 21
21 5 4 5 2 5 8 10 3 1 2 2 7 11 12 13 9 14 16 17 17 17 15 8 11 6 17 15 14 12 12 15 19 13 9 12 7 11 11 2 6 8 7 12 19
5 3 4 5 4 7 8 5 3 2 4 4 8 6 12 18 13 16 15 9 8 15 18 9 7 7 8 9 15 18 10 12 11 16 16 10 9 10 8 10 10 5 6 7 13
5 5 6 2 5 7 8 3 2 2 5 4 2 4 1 7 14 17 13 7 8 11 14 15 11 6 8 13 13 11 18 14 16 14 15 13 10 6 6 10 12 14 4 6 11
5 4 5 3 6 1 4 2 2 2 3 1 3 2 3 1 8 10 9 3 1 7 13 19 10 14 15 10 7 14 20 24 15 18 11 14 12 13 14 16 15 13 7 6 8
5 3 3 5 4 4 5 5 4 2 6 3 1 4 2 1 5 3 5 6 3 6 5 9 12 11 10 10 10 13 16 19 24 20 20 16 10 11 14 14 13 12 5 5 9
5 4 4 3 1 4 2 3 5 6 6 2 3 2 4 4 1 6 7 5 3 8 3 5 14 13 11 1 6 19 17 20 23 18 15 17 19 15 19 18 13 8 4 5 10
4 5 4 1 4 2 2 1 3 3 4 6 4 6 3 5 5 4 2 3 5 2 3 7 13 14 14 9 9 10 13 19 21 23 23 17 17 14 16 18 8 7 9 9 11
5 5 1 4 2 4 3 3 2 2 5 3 2 4 5 2 7 4 6 2 3 4 4 4 8 6 14 13 10 13 16 18 15 19 21 21 18 15 21 8 9 9 9 12 14
3 2 6 2 4 5 4 2 2 3 4 6 5 6 3 5 8 9 9 10 10 7 6 8 7 9 14 10 11 16 17 18 17 17 18 18 18 13 7 8 11 12 10 14 15
Wind_Direction
346 346 345 342 339 339 339 335 332 334 334 335 327 329 327 323 279 208 233 165 165 166 160 151 169 166 191 226 228 258 228 95 106 111 131 148 145 126 79 141 152 152 149 134 146
343 341 340 339 337 335 336 333 328 328 331 327 319 318 316 307 252 246 138 142 146 167 169 170 168 166 206 215 206 267 56 80 96 114 136 158 153 144 164 151 141 140 126 140 154
341 338 335 335 335 333 332 330 325 322 325 319 312 305 295 277 258 134 124 153 158 179 167 181 167 186 251 214 150 81 68 125 117 104 134 150 150 154 148 170 166 157 150 156 163
338 334 332 332 332 331 328 326 323 317 316 311 303 292 283 233 224 58 150 155 161 175 169 177 179 213 259 26 110 192 144 126 126 138 134 150 140 158 179 92 152 155 164 163 169
334 330 329 331 330 329 325 322 319 312 304 297 287 277 240 216 268 84 149 157 171 172 180 179 191 266 22 53 133 142 113 153 138 156 153 153 158 132 182 117 140 150 168 171 176
331 326 327 329 329 328 324 320 316 305 291 275 257 256 241 240 58 128 163 168 181 182 189 206 323 344 306 51 347 115 125 122 145 151 148 177 163 201 153 146 148 162 177 181 184
328 326 327 329 328 329 325 321 314 297 260 243 224 240 239 9 54 154 165 179 183 193 191 216 307 295 347 125 116 153 126 133 150 160 156 203 189 212 146 159 160 172 180 187 187
325 325 325 328 329 328 325 325 318 286 203 205 204 230 269 64 134 160 167 181 183 185 286 262 257 284 258 283 168 166 195 164 159 185 151 216 132 185 163 175 176 176 178 190 189
324 324 326 328 327 327 326 326 339 103 155 169 203 246 184 152 187 169 182 177 183 197 209 308 248 258 210 226 173 205 170 216 165 204 189 218 264 155 177 191 186 184 182 187 190
323 324 326 325 325 327 323 300 82 153 169 218 279 222 171 174 146 161 191 171 166 182 211 238 228 234 216 223 197 182 218 203 249 188 226 231 246 176 196 206 198 191 187 190 193
323 325 326 327 324 327 319 209 204 179 207 267 139 340 134 103 147 175 167 172 172 189 197 193 219 216 207 217 346 221 256 255 245 128 258 250 266 275 180 212 209 198 192 192 201
323 325 327 325 320 320 260 256 35 1 273 218 233 257 192 332 153 158 176 176 183 193 206 180 226 231 315 213 226 224 248 237 99 196 249 282 277 276 208 212 211 203 194 197 196
322 325 324 324 319 277 286 349 20 303 252 155 189 215 197 211 197 165 192 199 194 204 204 226 216 213 223 219 241 236 274 329 342 221 246 284 268 238 218 207 217 214 206 201 195
323 326 326 324 292 16 211 133 310 265 256 135 176 161 185 212 202 157 202 196 202 213 216 236 213 220 222 242 243 268 64 294 288 255 327 263 303 252 168 204 207 204 208 207 198
324 324 321 327 330 231 69 308 277 219 223 136 132 118 160 195 125 179 193 209 220 204 217 219 204 225 237 240 243 263 346 302 289 263 280 205 259 108 168 203 211 211 205 210 206
325 322 318 192 213 283 301 289 216 228 169 139 131 175 172 199 182 139 177 229 245 216 220 255 201 260 249 243 240 160 226 231 235 269 263 93 256 147 153 207 199 203 210 206 210
324 321 242 239 57 334 289 202 220 250 149 155 155 177 191 179 171 172 182 193 192 198 205 212 237 223 246 232 218 220 238 243 225 211 246 87 254 313 176 231 248 201 199 211 204
325 313 171 281 294 288 221 215 241 39 173 117 174 180 195 187 201 197 194 201 210 210 228 210 207 214 198 231 199 220 235 242 232 255 231 138 248 134 78 342 274 248 246 193 208
315 180 201 51 192 229 237 217 324 39 13 227 170 204 190 195 227 201 209 212 196 219 231 199 242 136 230 212 237 181 234 255 280 275 265 269 234 247 254 143 192 240 211 213 198
293 241 67 329 241 242 237 250 130 7 320 228 239 252 194 187 202 197 192 204 222 198 235 220 260 195 138 226 237 257 227 220 227 257 262 258 237 279 286 301 316 208 248 232 208
238 233 48 99 236 223 235 83 149 65 339 282 211 211 234 186 220 198 190 128 222 189 226 234 230 172 170 205 220 193 232 241 272 241 247 254 251 273 315 297 311 313 277 258 200
288 237 43 250 222 261 204 7 250 21 18 259 268 294 287 181 197 197 179 138 150 184 197 219 244 237 221 220 250 256 213 224 227 231 239 272 280 302 303 293 313 299 281 296 215
322 344 86 277 255 163 139 121 40 43 41 3 119 349 337 185 198 189 138 105 49 192 197 170 220 234 225 192 205 237 240 238 231 242 249 256 258 273 287 281 288 283 278 227 198
285 232 124 89 18 310 176 129 143 50 68 33 2 288 221 195 221 157 151 116 64 42 324 255 250 239 249 357 317 203 224 225 244 238 244 248 266 266 281 287 289 232 200 225 189
350 55 12 81 94 83 251 326 197 135 28 17 103 35 357 222 182 130 84 176 148 63 202 263 252 239 264 287 279 269 246 216 230 245 246 258 257 268 268 284 316 310 177 191 184
352 335 7 12 309 239 147 75 298 87 333 95 42 356 344 36 9 90 346 88 43 321 291 251 261 278 259 245 248 254 251 250 234 248 245 253 267 269 276 341 284 257 211 201 193
37 119 287 27 339 261 54 67 79 307 91 56 350 298 242 59 328 304 294 292 286 296 300 273 271 243 253 244 254 252 242 241 244 228 243 237 240 259 295 314 304 296 214 215 201